Regional Weather Roundup
Issued by NWS Columbia, SC

Home | Current Version | Previous Version | Text Only | Print | Product List | Glossary On
Versions: 1 2 3 4 5 6 7 8 9 10 11 12 13 14 15 16 17 18 19 20 21 22 23 24 25 26 27
000
ASUS42 KCAE 181510
RWRCAE
REGIONAL WEATHER ROUNDUP
NATIONAL WEATHER SERVICE COLUMBIA SC
1000 AM EST MON DEC 18 2017

NOTE: "FAIR" INDICATES FEW OR NO CLOUDS BELOW 12,000 FEET WITH NO
SIGNIFICANT WEATHER AND/OR OBSTRUCTIONS TO VISIBILITY.

NOT ALL STATIONS ARE QUALITY CONTROLLED BY THE NATIONAL
WEATHER SERVICE. USE DATA WITH CAUTION...ESPECIALLY
DEWPOINT OBSERVATIONS.

SCZ001>056-GAZ040-063>065-077-181600-
...UPSTATE SOUTH CAROLINA...

CITY           SKY/WX    TMP DP  RH WIND       PRES   REMARKS
ANDERSON       CLOUDY    49  48  97 SW6       30.19S FOG
LIBERTY        CLOUDY    46  46 100 SW6       30.17S FOG
SPARTANBURG    CLOUDY    48  43  81 CALM      30.18R
CLEMSON        FOG       47  47 100 CALM      30.19S VSB 1/2
GREENVILLE     CLOUDY    49  46  90 SW6       30.18R
GREENWOOD      CLOUDY    48  48 100 SW6       30.21S FOG
GREER          CLOUDY    48  47  96 SW5       30.19R FOG
ROCK HILL      SUNNY     52  40  63 SW5       30.18S
CHESTER        SUNNY     54  37  54 CALM      30.19S
LAURENS        PTSUNNY   50  46  87 SW6       30.19S


...CENTRAL SOUTH CAROLINA...

CITY           SKY/WX    TMP DP  RH WIND       PRES   REMARKS
COLUMBIA APT   PTSUNNY   58  45  62 CALM      30.20R
COLUMBIA OWENS CLOUDY    56  43  61 W3        30.21R
MCENTIRE ANGB  CLOUDY    56  44  64 W5        30.20S
ORANGEBURG     CLOUDY    61  55  81 SW7       30.21R
SUMTER SHAW    CLOUDY    57  47  69 W6        30.18R
NEWBERRY       MOSUNNY   52  48  87 SW6       30.23S
AIKEN          CLOUDY    55  46  71 SW7       30.23S
BARNWELL         N/A     64  57  77 CALM      30.21S
MANNING        CLOUDY    61  45  55 MISG      30.21R
CAMDEN         FAIR      55  41  58 CALM      30.20S
LANCASTER      SUNNY     52  39  62 CALM      30.19S
WINNSBORO      SUNNY     52  46  82 W7        30.20R


...EASTERN AND COASTAL SOUTH CAROLINA...

CITY           SKY/WX    TMP DP  RH WIND       PRES   REMARKS
MYRTLE BEACH   PTSUNNY   65  58  78 W10       30.21R
N MYRTLE BCH   CLOUDY    62  57  83 W3        30.19R
CONWAY         CLOUDY    59  55  88 CALM      30.20R FOG
MARION         CLOUDY    55  50  82 W5        30.20S
HARTSVILLE     FAIR      55  41  58 W3        30.19S
FLORENCE       CLOUDY    59  49  69 W6        30.20S
DARLINGTON     SUNNY     56  42  59 SW5       30.21R
CHARLESTON APT CLOUDY    61  59  93 W7        30.21R
MOUNT PLEASANT CLOUDY    64  61  88 W6        30.21R
WALTERBORO     CLOUDY    63  59  88 CALM      30.22S
BEAUFORT       CLOUDY    63  62  97 SW8       30.22R


...EASTERN GEORGIA...

CITY           SKY/WX    TMP DP  RH WIND       PRES   REMARKS
AUGUSTA BUSH F CLOUDY    59  45  59 CALM      30.21R
AUGUSTA DANIEL CLOUDY    57  48  72 SW3       30.21R
THOMSON        CLOUDY    55  48  76 CALM      30.26R
CLAXTON        CLOUDY    61  60  96 CALM      30.22R FOG
SYLVANIA       CLOUDY    61  59  94 CALM      30.22R
STATESBORO     CLOUDY    62  57  85 CALM      30.22S
SAVANNAH       DRIZZLE   62  62 100 SW6       30.23R FOG


...SOUTHERN NORTH CAROLINA...

CITY           SKY/WX    TMP DP  RH WIND       PRES   REMARKS
CHARLOTTE      PTSUNNY   54  45  71 VRB5      30.18S
MONROE         SUNNY     54  40  59 VRB5      30.17R
WADESBORO      SUNNY     54  39  57 CALM      30.19R
RUTHERFORDTON  FOG       40  40 100 CALM      30.18R VSB 1/4
ASHEVILLE      CLOUDY    42  36  79 CALM      30.18R

$$




USA.gov is the U.S. government's official web portal to all federal, state and local government web resources and services.